| Date | Time | Temp. (oF) | Dew Point (oF) | Rel. Hum. (%) | Press. (in.) | Wind Dir. | Wind Speed (mph) | Hourly Rainfall (in.) |
|
|---|---|---|---|---|---|---|---|---|---|
| 1 | 12/12 | 00:00 | 33 | 32 | 100 | 29.98 | WNW | 4 | 0.00 |
| 2 | 12/11 | 23:00 | 33 | 32 | 100 | 29.95 | NW | 4 | 0.00 |
| 3 | 12/11 | 22:00 | 33 | 32 | 100 | 29.95 | NW | 6 | 0.01 |
| 4 | 12/11 | 21:00 | 32 | 32 | 100 | 29.94 | NW | 6 | 0.00 |
| 5 | 12/11 | 20:00 | 32 | 32 | 100 | 29.93 | NW | 4 | 0.02 |
| 6 | 12/11 | 19:00 | 32 | 32 | 100 | 29.93 | W | 7 | 0.01 |
| 7 | 12/11 | 18:00 | 32 | 32 | 100 | 29.92 | NW | 2 | 0.01 |
| 8 | 12/11 | 17:00 | 32 | 32 | 100 | 29.91 | E | 5 | 0.06 |
| 9 | 12/11 | 16:00 | 31 | 31 | 100 | 29.89 | ENE | 12 | 0.03 |
| 10 | 12/11 | 15:00 | 31 | 31 | 100 | 29.94 | N | 10 | 0.36 |
| 11 | 12/11 | 14:00 | 31 | 31 | 100 | 29.96 | NNW | 7 | 0.33 |
| 12 | 12/11 | 13:00 | 31 | 31 | 100 | 29.98 | NW | 5 | 0.11 |
| 13 | 12/11 | 12:00 | 31 | 31 | 100 | 29.97 | NE | 10 | 0.15 |
| 14 | 12/11 | 11:00 | 31 | 30 | 99 | 30.04 | NE | 5 | 0.09 |
| 15 | 12/11 | 10:00 | 30 | 29 | 98 | 30.05 | NNE | 7 | 0.05 |
| 16 | 12/11 | 09:00 | 29 | 27 | 95 | 30.08 | NE | 9 | 0.09 |
| 17 | 12/11 | 08:00 | 28 | 26 | 93 | 30.11 | W | 3 | 0.00 |
| 18 | 12/11 | 07:00 | 26 | 24 | 93 | 30.09 | NNW | 3 | 0.02 |
| 19 | 12/11 | 06:00 | 25 | 23 | 94 | 30.11 | WNW | 1 | 0.01 |
| 20 | 12/11 | 05:00 | 22 | 20 | 93 | 30.12 | ESE | 2 | 0.00 |
| 21 | 12/11 | 04:00 | 22 | 20 | 93 | 30.13 | N | 1 | 0.00 |
| 22 | 12/11 | 03:00 | 20 | 18 | 94 | 30.16 | W | 1 | 0.00 |
| 23 | 12/11 | 02:00 | 18 | 17 | 96 | 30.15 | E | 0 | 0.00 |
| 24 | 12/11 | 01:00 | 17 | 16 | 96 | 30.15 | N | 0 | 0.00 |